DW1549 Weather Reports


Display with metric or nautical units.
time (UTC)temp
F
wind
direction
speed
MPH
gust
MPH
rain 1hr
in
rain 24hr
in
rain mn
in
humidity
%
barometer
mb
20210723194700 50 250 96.0 98.0 0.02 0.11 0.11 93 1015.0
20210723193701 50 248 97.0 97.0 0.03 0.11 0.11 93 1015.0
20210723192701 50 248 97.0 97.0 0.03 0.11 0.11 93 1015.1
20210723191701 50 248 97.0 97.0 0.02 0.10 0.10 93 1015.0
20210723190701 50 249 97.0 97.0 0.02 0.10 0.10 93 1015.0
20210723184701 50 248 97.0 97.0 0.01 0.09 0.09 93 1015.2
20210723183700 50 249 95.0 97.0 0.00 0.08 0.08 92 1015.2
20210723182701 50 248 95.0 97.0 0.00 0.08 0.08 92 1015.3
20210723181701 50 248 5.0 43.0 0.00 0.08 0.08 92 1015.3
20210723180701 50 249 0.0 86.0 0.00 0.08 0.08 92 1015.4
20210723175700 50 249 19.0 97.0 0.00 0.08 0.08 92 1015.4
20210723174701 50 249 1.0 40.0 0.00 0.08 0.08 92 1015.4
20210723173706 50 249 56.0 97.0 0.00 0.08 0.08 92 1015.5
20210723172705 50 248 53.0 97.0 0.00 0.08 0.08 92 1015.6
20210723171706 50 248 12.0 97.0 0.00 0.08 0.08 92 1015.7
20210723170705 50 249 9.0 81.0 0.00 0.08 0.08 92 1015.7
20210723165706 50 247 3.0 44.0 0.00 0.08 0.08 92 1015.8
20210723164706 50 260 3.0 49.0 0.00 0.08 0.08 91 1015.7
20210723163700 50 255 2.0 22.0 0.00 0.08 0.08 91 1015.8
20210723162700 51 251 2.0 12.0 0.00 0.08 0.08 91 1015.9
20210723161659 51 257 0.0 0.0 0.00 0.08 0.08 91 1016.0
20210723155659 51 259 0.0 9.0 0.00 0.08 0.08 91 1015.9
20210723154700 51 241 0.0 1.0 0.00 0.08 0.08 91 1016.0
20210723153701 51 240 0.0 1.0 0.00 0.08 0.08 92 1016.1
20210723151700 51 243 0.0 1.0 0.00 0.08 0.08 92 1016.1
20210723150700 51 243 0.0 0.0 0.00 0.08 0.08 92 1016.1
20210723145700 51 245 0.0 7.0 0.00 0.08 0.08 92 1016.1
20210723144701 51 216 0.0 10.0 0.00 0.08 0.08 92 1016.1
20210723143700 51 228 1.0 9.0 0.00 0.08 0.08 92 1016.0
20210723142700 51 236 1.0 9.0 0.00 0.08 0.08 92 1016.1
20210723141659 51 232 2.0 9.0 0.00 0.09 0.08 92 1016.1
20210723140700 51 253 4.0 15.0 0.00 0.09 0.08 92 1016.1
20210723135700 52 261 4.0 15.0 0.00 0.10 0.08 93 1016.0
20210723132702 51 286 7.0 38.0 0.00 0.10 0.08 93 1016.0
20210723131702 51 256 6.0 97.0 0.00 0.10 0.08 94 1016.0
20210723130701 52 327 35.0 97.0 0.00 0.10 0.08 94 1015.8
20210723125704 51 239 94.0 97.0 0.01 0.10 0.08 94 1015.9
20210723124703 51 259 90.0 97.0 0.01 0.10 0.08 94 1015.8
20210723123708 51 276 87.0 97.0 0.02 0.10 0.08 94 1015.8
20210723122707 50 262 86.0 97.0 0.02 0.10 0.08 94 1015.8
20210723121708 49 252 85.0 97.0 0.02 0.10 0.08 94 1015.8
20210723120708 49 251 97.0 97.0 0.02 0.10 0.08 94 1015.8
20210723114708 50 256 97.0 97.0 0.01 0.09 0.07 94 1015.6
20210723113659 50 257 91.0 97.0 0.01 0.08 0.06 94 1015.7
20210723111700 49 256 97.0 97.0 0.02 0.08 0.06 94 1015.6
20210723110659 49 256 97.0 97.0 0.02 0.08 0.06 94 1015.7
20210723105659 49 256 97.0 97.0 0.02 0.08 0.06 94 1015.5
20210723104659 48 256 97.0 97.0 0.02 0.08 0.06 94 1015.6
20210723103659 49 256 97.0 97.0 0.01 0.07 0.05 94 1015.7
20210723102659 49 250 97.0 97.0 0.01 0.07 0.05 94 1015.7
20210723101659 49 250 97.0 97.0 0.00 0.06 0.04 94 1015.6
20210723094700 49 254 97.0 97.0 0.00 0.06 0.04 94 1015.6
20210723093707 49 254 97.0 97.0 0.00 0.06 0.04 94 1015.5
20210723085707 49 252 97.0 97.0 0.00 0.06 0.04 94 1015.3
20210723083658 49 251 97.0 97.0 0.00 0.06 0.04 94 1015.3
20210723075658 48 244 97.0 98.0 0.01 0.06 0.04 94 1015.1
20210723074659 48 244 97.0 97.0 0.01 0.06 0.04 94 1015.1
20210723073701 48 243 97.0 97.0 0.01 0.06 0.04 94 1015.1
20210723072701 48 240 97.0 97.0 0.01 0.06 0.04 94 1015.0
20210723071701 48 240 97.0 97.0 0.01 0.06 0.04 94 1015.0
20210723070701 48 240 97.0 97.0 0.02 0.06 0.04 94 1015.0
20210723065702 48 240 97.0 97.0 0.01 0.06 0.03 94 1014.9
20210723064702 48 240 97.0 97.0 0.01 0.06 0.03 94 1015.0
20210723063702 48 241 97.0 97.0 0.01 0.06 0.03 94 1014.9
20210723062701 48 240 97.0 97.0 0.01 0.06 0.03 93 1014.9
20210723061702 48 240 97.0 97.0 0.01 0.06 0.03 94 1014.9
20210723060702 47 239 97.0 97.0 0.00 0.05 0.02 93 1014.9
20210723055702 47 240 97.0 97.0 0.00 0.06 0.02 93 1014.9
20210723054701 47 239 97.0 97.0 0.00 0.06 0.02 93 1014.8
20210723053703 47 237 63.0 97.0 0.00 0.07 0.02 94 1014.7
20210723052704 47 225 97.0 97.0 0.00 0.08 0.02 94 1014.8
20210723051704 47 225 97.0 97.0 0.00 0.08 0.02 93 1014.7
20210723050704 47 226 97.0 97.0 0.00 0.09 0.02 93 1014.6
20210723044704 47 225 97.0 97.0 0.01 0.10 0.02 93 1014.6
20210723043701 47 225 97.0 97.0 0.01 0.10 0.02 94 1014.5
20210723042701 47 225 97.0 97.0 0.01 0.11 0.02 94 1014.7
20210723040701 47 224 97.0 97.0 0.01 0.11 0.02 94 1014.7
20210723035701 47 225 97.0 97.0 0.01 0.12 0.02 94 1014.7
20210723034701 47 225 97.0 97.0 0.00 0.12 0.01 94 1014.7
20210723033701 47 224 97.0 97.0 0.00 0.13 0.01 94 1014.7
20210723032702 47 226 97.0 97.0 0.00 0.13 0.01 93 1014.7
20210723031701 47 225 97.0 97.0 0.01 0.14 0.01 93 1014.6
20210723024701 47 225 97.0 97.0 0.01 0.15 0.01 93 1014.5
20210723023701 47 226 97.0 97.0 0.01 0.15 0.01 93 1014.5
20210723021701 47 225 97.0 97.0 0.00 0.14 0.00 93 1014.5
20210723020700 47 225 97.0 97.0 0.00 0.14 0.00 93 1014.4
20210723014701 47 224 97.0 97.0 0.00 0.14 0.00 93 1014.4
20210723013700 47 224 97.0 97.0 0.00 0.14 0.00 93 1014.4
20210723012700 47 224 97.0 97.0 0.00 0.14 0.00 93 1014.3
20210723011659 47 224 97.0 97.0 0.00 0.15 0.00 93 1014.2
20210723010700 47 225 97.0 97.0 0.00 0.15 0.00 92 1014.2
20210723005700 47 224 97.0 97.0 0.00 0.15 0.00 93 1014.1
20210723004659 47 224 97.0 97.0 0.00 0.15 0.00 92 1014.1
20210723003703 47 224 97.0 97.0 0.00 0.15 0.00 92 1014.1
20210723001702 47 225 93.0 97.0 0.00 0.15 0.00 92 1013.9
20210722235703 47 229 97.0 97.0 0.00 0.15 0.00 92 1013.8
20210722232704 47 229 97.0 97.0 0.00 0.16 0.00 92 1013.6
20210722231704 48 230 97.0 97.0 0.00 0.17 0.00 92 1013.6
20210722230704 48 230 97.0 97.0 0.00 0.17 0.00 92 1013.5
20210722225703 48 229 97.0 97.0 0.00 0.18 0.00 92 1013.4
20210722223704 48 230 97.0 97.0 0.00 0.19 0.00 92 1013.2
20210722221703 47 230 97.0 97.0 0.00 0.21 0.00 92 1012.9
20210722220703 48 230 97.0 97.0 0.00 0.22 0.22 91 1012.8
20210722213704 48 230 97.0 97.0 0.00 0.27 0.22 91 1012.9
20210722205702 48 230 59.0 97.0 0.00 0.35 0.22 90 1012.6
20210722204703 48 226 76.0 97.0 0.00 0.35 0.22 91 1012.6
20210722203712 48 226 97.0 97.0 0.00 0.37 0.22 91 1012.5
20210722202711 48 225 60.0 97.0 0.00 0.38 0.22 90 1012.5
20210722201711 48 224 93.0 97.0 0.00 0.41 0.22 91 1012.4
20210722200711 48 220 97.0 97.0 0.00 0.44 0.22 91 1012.3
20210722195712 48 220 97.0 97.0 0.00 0.48 0.22 91 1012.3